TIANMU-1 20

Last updated on Wed Sep 17 2025 00:02:23 GMT+0000 (Coordinated Universal Time)

1 58661U 23208B 25259.62731992 .00008693 00000+0 33320-3 0 9992 2 58661 97.4271 11.3826 0007563 206.2451 153.8405 15.26728678 95596
UTC large
Height (km)
Speed (km/s)
/
Latitude / Longitude
Inclination (degrees)
Orbital Period (minutes)
Azimuth
Elevation
Range (km)
Doppler Factor

Next 0 passes for location: London (51.5072 / 0.1276)

Sorry there are no passes over London.